World > North America > United States > Vermont > Roxbury Flat  

Roxbury Flat, VT Hourly Weather Updates

Feedback E-mail the Weather

Quick Clicks

Roxbury Flat, VT Weather Maps

°F °C°F °C
Roxbury Flat Weather Map
UTC Time: 6/21/2024, 18:29
Your Time:

Roxbury Flat, VT Regional Weather

Expires:202406211900;;419469
ASUS41 KBOX 211810
RWRBOX

REGIONAL WEATHER ROUNDUP
NATIONAL WEATHER SERVICE BOSTON/NORTON MA
200 PM EDT FRI JUN 21 2024

NOTE:  "FAIR" INDICATES FEW OR NO CLOUDS BELOW 12,000 FEET WITH NO 
SIGNIFICANT WEATHER AND/OR OBSTRUCTIONS TO VISIBILITY.


MEZ002-015-021-024-NHZ003-005-008-011-012-014-VTZ005-008-211900-
NORTHERN NEW ENGLAND
  
CITY           SKY/WX    TMP DP  RH WIND       PRES   REMARKS
PORTLAND ME    CLOUDY    74  58  57 NE8       30.21F                  
6HR MIN TEMP:  70; 6HR MAX TEMP:  74;                                

BANGOR ME      MOSUNNY   82  52  35 N9        30.19F                  
CONCORD NH     CLOUDY    77  64  64 E9        30.18F                  
MANCHESTER NH  CLOUDY    81  66  60 E5        30.16F                  
NASHUA NH      PTSUNNY   82  68  62 E10G20    30.17F                  
PORTSMOUTH NH  PTSUNNY   76  58  53 NE10      30.18F                  
JAFFREY NH     MOSUNNY   85  68  56 VRB3      30.18F                  
KEENE NH       PTSUNNY   84  69  60 S5        30.14F                  
BURLINGTON VT  CLOUDY    76  63  64 NW10      30.19F                  
MT. WASHINGTON FOG       54  54 100 NW12        N/A  VSB 1/16         
$$


SKY/WX - Weather  TMP - Temperature  DP - Dew Point  RH - Humidity
WIND - Wind Direction/Speed PRES - Barometric Pressure VSB - Visibility
WCI - Wind Chill Index E13G22 Wind - East Wind 13 mph/Gusts of 22 mph

Trending Headlines

Trending Entertainment Headlines

Roxbury Flat Radar Loop

Use the map search tool if you want to place a location marker on the radar map...

Roxbury Flat Quick Facts

National Two Day Weather Forecast


E-mail the Roxbury Flat Weather Forecast

Voice your opinion or tell us about page issues...